PVV240 GVAC-GOBD

Flight info

Callsign PVV240
Flight time 0h 54m
Altitude 33000
Route POLMO2A POLMO DCT LUMPO DCT LIGOV LIGOV1D
Aircraft B742/H-SDFHIRWXY/L

Departure

Time 2026-04-22 13:46
Airport Amílcar Cabral International Airport (GVAC)

Arrival

Time 2026-04-22 14:40
Airport Blaise Diagne International Airport (GOBD)
Time Latitude Longitude Altitude Speed Heading
2026-04-22 13:25 16.73560 -22.94505 184 ft 0 kts 90°
2026-04-22 13:35 16.73560 -22.94512 184 ft 2 kts 85°
2026-04-22 13:36 16.73558 -22.94528 184 ft 2 kts 82°
2026-04-22 13:36 16.73556 -22.94543 184 ft 2 kts 84°
2026-04-22 13:36 16.73555 -22.94559 184 ft 2 kts 84°
2026-04-22 13:36 16.73553 -22.94574 184 ft 2 kts 84°
2026-04-22 13:37 16.73552 -22.94589 184 ft 1 kts 104°
2026-04-22 13:37 16.73560 -22.94597 184 ft 1 kts 161°
2026-04-22 13:37 16.73567 -22.94598 184 ft 0 kts 179°
2026-04-22 13:39 16.73561 -22.94598 184 ft 2 kts 179°
2026-04-22 13:39 16.73537 -22.94597 185 ft 5 kts 179°
2026-04-22 13:39 16.73492 -22.94597 186 ft 7 kts 179°
2026-04-22 13:40 16.73434 -22.94596 187 ft 9 kts 179°
2026-04-22 13:40 16.73355 -22.94596 189 ft 12 kts 179°
2026-04-22 13:40 16.73263 -22.94593 191 ft 13 kts 178°
2026-04-22 13:40 16.73160 -22.94593 192 ft 16 kts 180°
2026-04-22 13:41 16.73060 -22.94643 192 ft 9 kts 236°
2026-04-22 13:41 16.73023 -22.94692 192 ft 7 kts 204°
2026-04-22 13:41 16.72963 -22.94694 191 ft 10 kts 176°
2026-04-22 13:41 16.72874 -22.94691 190 ft 15 kts 179°
2026-04-22 13:42 16.72753 -22.94690 188 ft 18 kts 179°
2026-04-22 13:42 16.72628 -22.94689 187 ft 17 kts 179°
2026-04-22 13:42 16.72505 -22.94690 185 ft 17 kts 181°
2026-04-22 13:42 16.72418 -22.94711 185 ft 10 kts 230°
2026-04-22 13:43 16.72399 -22.94779 185 ft 9 kts 273°
2026-04-22 13:43 16.72407 -22.94839 185 ft 7 kts 278°
2026-04-22 13:43 16.72422 -22.94878 184 ft 2 kts 330°
2026-04-22 13:43 16.72444 -22.94883 184 ft 3 kts 351°
2026-04-22 13:44 16.72462 -22.94884 184 ft 0 kts 357°
2026-04-22 13:44 16.72470 -22.94885 184 ft 0 kts 358°
2026-04-22 13:45 16.72481 -22.94885 184 ft 6 kts 359°
2026-04-22 13:45 16.72724 -22.94889 185 ft 68 kts 360°
2026-04-22 13:46 16.73408 -22.94894 194 ft 127 kts 360°
2026-04-22 13:46 16.74468 -22.94929 281 ft 166 kts
2026-04-22 13:46 16.75587 -22.94968 868 ft 163 kts
2026-04-22 13:46 16.76749 -22.94937 1324 ft 171 kts
2026-04-22 13:47 16.77986 -22.94831 1738 ft 182 kts
2026-04-22 13:47 16.79252 -22.94768 2281 ft 186 kts
2026-04-22 13:47 16.80563 -22.94739 2779 ft 192 kts
2026-04-22 13:47 16.81920 -22.94724 3295 ft 200 kts 359°
2026-04-22 13:48 16.83369 -22.94732 3648 ft 216 kts 358°
2026-04-22 13:48 16.84915 -22.94540 4077 ft 231 kts 22°
2026-04-22 13:48 16.86164 -22.93472 4559 ft 244 kts 57°
2026-04-22 13:48 16.86662 -22.91753 4963 ft 258 kts 92°
2026-04-22 13:49 16.86179 -22.89964 5335 ft 261 kts 127°
2026-04-22 13:49 16.84834 -22.88699 5711 ft 268 kts 160°
2026-04-22 13:49 16.83059 -22.88016 6148 ft 279 kts 163°
2026-04-22 13:49 16.81233 -22.87157 6699 ft 293 kts 158°
2026-04-22 13:50 16.80018 -22.86490 7136 ft 298 kts 156°
2026-04-22 13:50 16.77573 -22.85048 8009 ft 308 kts 154°
2026-04-22 13:50 16.75720 -22.83915 8735 ft 313 kts 154°
2026-04-22 13:50 16.73825 -22.82743 9434 ft 317 kts 154°
2026-04-22 13:51 16.71909 -22.81552 9913 ft 330 kts 154°
2026-04-22 13:51 16.69892 -22.80271 10196 ft 353 kts 149°
2026-04-22 13:51 16.68021 -22.78474 10516 ft 379 kts 133°
2026-04-22 13:51 16.66607 -22.76080 11014 ft 398 kts 117°
2026-04-22 13:52 16.65684 -22.73346 11620 ft 406 kts 109°
2026-04-22 13:52 16.64857 -22.70483 12306 ft 413 kts 109°
2026-04-22 13:52 16.63980 -22.67625 12994 ft 418 kts 111°
2026-04-22 13:52 16.63039 -22.64774 13665 ft 422 kts 111°
2026-04-22 13:53 16.62043 -22.61875 14347 ft 426 kts 112°
2026-04-22 13:53 16.61035 -22.58992 15020 ft 429 kts 112°
2026-04-22 13:53 16.60003 -22.56059 15626 ft 433 kts 112°
2026-04-22 13:53 16.58960 -22.53098 16188 ft 438 kts 112°
2026-04-22 13:54 16.57912 -22.50122 16763 ft 442 kts 112°
2026-04-22 13:54 16.56843 -22.47086 17346 ft 446 kts 112°
2026-04-22 13:54 16.55776 -22.44053 17919 ft 449 kts 112°
2026-04-22 13:54 16.54700 -22.40996 18445 ft 452 kts 112°
2026-04-22 13:55 16.53618 -22.37921 18908 ft 457 kts 112°
2026-04-22 13:55 16.52516 -22.34796 19369 ft 462 kts 112°
2026-04-22 13:55 16.51411 -22.31682 19822 ft 465 kts 112°
2026-04-22 13:55 16.50279 -22.28510 20280 ft 468 kts 112°
2026-04-22 13:56 16.49144 -22.25323 20737 ft 471 kts 112°
2026-04-22 13:56 16.48003 -22.22111 21192 ft 473 kts 112°
2026-04-22 13:56 16.46860 -22.18885 21646 ft 476 kts 112°
2026-04-22 13:56 16.45714 -22.15647 22097 ft 477 kts 112°
2026-04-22 13:57 16.44578 -22.12434 22555 ft 479 kts 112°
2026-04-22 13:57 16.43420 -22.09165 23041 ft 480 kts 112°
2026-04-22 13:57 16.42274 -22.05930 23521 ft 481 kts 112°
2026-04-22 13:57 16.41114 -22.02655 24019 ft 482 kts 112°
2026-04-22 13:58 16.39949 -21.99371 24529 ft 483 kts 112°
2026-04-22 13:58 16.38784 -21.96088 25030 ft 484 kts 111°
2026-04-22 13:58 16.37622 -21.92813 25487 ft 486 kts 111°
2026-04-22 13:58 16.36450 -21.89511 25948 ft 487 kts 111°
2026-04-22 13:59 16.35275 -21.86203 26408 ft 489 kts 111°
2026-04-22 13:59 16.34095 -21.82885 26869 ft 490 kts 111°
2026-04-22 13:59 16.32921 -21.79585 27252 ft 493 kts 111°
2026-04-22 13:59 16.31722 -21.76217 27603 ft 497 kts 111°
2026-04-22 14:00 16.30517 -21.72831 27957 ft 500 kts 111°
2026-04-22 14:00 16.29309 -21.69441 28305 ft 504 kts 111°
2026-04-22 14:00 16.28085 -21.66009 28655 ft 507 kts 110°
2026-04-22 14:00 16.26908 -21.62585 28993 ft 508 kts 109°
2026-04-22 14:01 16.25706 -21.59110 29330 ft 511 kts 111°
2026-04-22 14:01 16.24453 -21.55643 29644 ft 514 kts 111°
2026-04-22 14:01 16.23179 -21.52150 29897 ft 517 kts 112°
2026-04-22 14:01 16.21906 -21.48647 30150 ft 521 kts 112°
2026-04-22 14:02 16.20627 -21.45109 30403 ft 525 kts 112°
2026-04-22 14:02 16.19362 -21.41594 30653 ft 528 kts 112°
2026-04-22 14:02 16.18078 -21.38014 30906 ft 531 kts 112°
2026-04-22 14:02 16.16780 -21.34393 31156 ft 534 kts 112°
2026-04-22 14:03 16.15473 -21.30774 31413 ft 536 kts 113°
2026-04-22 14:03 16.14162 -21.27156 31701 ft 537 kts 113°
2026-04-22 14:03 16.12834 -21.23487 31995 ft 538 kts 113°
2026-04-22 14:03 16.11507 -21.19812 32286 ft 540 kts 113°
2026-04-22 14:04 16.10171 -21.16104 32578 ft 541 kts 113°
2026-04-22 14:04 16.08855 -21.12448 32877 ft 540 kts 113°
2026-04-22 14:04 16.06209 -21.05100 32975 ft 547 kts 113°
2026-04-22 14:05 16.03527 -20.97660 32970 ft 552 kts 113°
2026-04-22 14:06 15.99473 -20.86426 32966 ft 554 kts 113°
2026-04-22 14:06 15.96771 -20.78951 32966 ft 554 kts 113°
2026-04-22 14:07 15.94056 -20.71449 32965 ft 555 kts 113°
2026-04-22 14:07 15.91353 -20.63993 32965 ft 553 kts 113°
2026-04-22 14:08 15.88633 -20.56496 32966 ft 554 kts 113°
2026-04-22 14:08 15.85917 -20.49017 32966 ft 552 kts 112°
2026-04-22 14:09 15.83212 -20.41581 32965 ft 553 kts 113°
2026-04-22 14:09 15.80496 -20.34125 32964 ft 553 kts 113°
2026-04-22 14:10 15.77754 -20.26669 32965 ft 552 kts 113°
2026-04-22 14:10 15.75018 -20.19220 32966 ft 553 kts 113°
2026-04-22 14:11 15.72308 -20.11817 32965 ft 552 kts 113°
2026-04-22 14:11 15.69576 -20.04349 32966 ft 552 kts 113°
2026-04-22 14:12 15.66878 -19.96941 32963 ft 551 kts 112°
2026-04-22 14:12 15.64231 -19.89503 32961 ft 552 kts 112°
2026-04-22 14:13 15.61582 -19.82048 32960 ft 552 kts 112°
2026-04-22 14:13 15.58916 -19.74576 32954 ft 550 kts 112°
2026-04-22 14:14 15.56259 -19.67145 32951 ft 550 kts 112°
2026-04-22 14:14 15.53592 -19.59698 32950 ft 549 kts 112°
2026-04-22 14:15 15.50931 -19.52275 32951 ft 550 kts 113°
2026-04-22 14:15 15.48275 -19.44875 32949 ft 549 kts 112°
2026-04-22 14:16 15.45619 -19.37429 32948 ft 549 kts 112°
2026-04-22 14:16 15.43046 -19.30015 32947 ft 547 kts 112°
2026-04-22 14:17 15.40467 -19.22600 32942 ft 547 kts 112°
2026-04-22 14:17 15.39180 -19.18899 32759 ft 550 kts 112°
2026-04-22 14:17 15.37874 -19.15142 32451 ft 549 kts 112°
2026-04-22 14:17 15.36588 -19.11438 32161 ft 546 kts 112°
2026-04-22 14:18 15.35302 -19.07737 31866 ft 542 kts 112°
2026-04-22 14:18 15.34029 -19.04076 31576 ft 540 kts 112°
2026-04-22 14:18 15.32771 -19.00461 31288 ft 537 kts 111°
2026-04-22 14:18 15.31494 -18.96795 30994 ft 536 kts 111°
2026-04-22 14:19 15.30234 -18.93181 30704 ft 536 kts 111°
2026-04-22 14:19 15.28973 -18.89566 30413 ft 536 kts 111°
2026-04-22 14:19 15.27707 -18.85935 30128 ft 534 kts 111°
2026-04-22 14:19 15.26447 -18.82324 29910 ft 532 kts 110°
2026-04-22 14:20 15.23946 -18.75163 29527 ft 531 kts 110°
2026-04-22 14:20 15.22703 -18.71606 29337 ft 531 kts 110°
2026-04-22 14:20 15.21430 -18.67968 29142 ft 529 kts 110°
2026-04-22 14:21 15.18942 -18.60863 28758 ft 524 kts 109°
2026-04-22 14:21 15.17702 -18.57323 28569 ft 524 kts 109°
2026-04-22 14:22 15.15225 -18.50257 28186 ft 521 kts 109°
2026-04-22 14:22 15.14000 -18.46766 27996 ft 518 kts 109°
2026-04-22 14:22 15.11548 -18.39785 27615 ft 515 kts 109°
2026-04-22 14:23 15.10331 -18.36322 27426 ft 513 kts 109°
2026-04-22 14:23 15.09109 -18.32855 27235 ft 512 kts 110°
2026-04-22 14:23 15.07892 -18.29429 27047 ft 511 kts 110°
2026-04-22 14:23 15.06661 -18.25966 26856 ft 509 kts 110°
2026-04-22 14:24 15.05442 -18.22529 26666 ft 508 kts 110°
2026-04-22 14:24 15.04238 -18.19125 26478 ft 506 kts 110°
2026-04-22 14:24 15.03040 -18.15733 26290 ft 504 kts 110°
2026-04-22 14:24 15.01837 -18.12326 26100 ft 503 kts 110°
2026-04-22 14:25 15.00644 -18.08946 25912 ft 502 kts 110°
2026-04-22 14:25 14.99453 -18.05575 25723 ft 500 kts 110°
2026-04-22 14:25 14.98263 -18.02207 25533 ft 499 kts 110°
2026-04-22 14:25 14.97068 -17.98830 25298 ft 498 kts 110°
2026-04-22 14:26 14.95884 -17.95482 24795 ft 500 kts 110°
2026-04-22 14:26 14.94698 -17.92131 24226 ft 497 kts 110°
2026-04-22 14:26 14.93512 -17.88780 23657 ft 492 kts 110°
2026-04-22 14:26 14.92348 -17.85496 23114 ft 487 kts 110°
2026-04-22 14:27 14.91192 -17.82237 22575 ft 483 kts 110°
2026-04-22 14:27 14.90040 -17.78990 22050 ft 478 kts 110°
2026-04-22 14:27 14.88899 -17.75774 21531 ft 474 kts 110°
2026-04-22 14:27 14.87769 -17.72597 21018 ft 469 kts 110°
2026-04-22 14:28 14.86652 -17.69454 20504 ft 465 kts 110°
2026-04-22 14:28 14.85551 -17.66358 19940 ft 462 kts 111°
2026-04-22 14:28 14.84444 -17.63247 19249 ft 462 kts 111°
2026-04-22 14:28 14.83338 -17.60140 18550 ft 461 kts 111°
2026-04-22 14:29 14.82237 -17.57049 17845 ft 460 kts 111°
2026-04-22 14:29 14.81148 -17.53991 17098 ft 447 kts 111°
2026-04-22 14:29 14.80096 -17.51031 16337 ft 431 kts 111°
2026-04-22 14:29 14.79089 -17.48198 15565 ft 417 kts 111°
2026-04-22 14:30 14.78098 -17.45415 14792 ft 405 kts 111°
2026-04-22 14:30 14.77149 -17.42751 14146 ft 395 kts 111°
2026-04-22 14:30 14.76204 -17.40107 13557 ft 394 kts 111°
2026-04-22 14:30 14.75261 -17.37473 12959 ft 393 kts 111°
2026-04-22 14:31 14.74263 -17.34830 12355 ft 390 kts 117°
2026-04-22 14:31 14.72798 -17.32482 11757 ft 387 kts 132°
2026-04-22 14:31 14.70838 -17.30659 11166 ft 383 kts 147°
2026-04-22 14:31 14.68476 -17.29429 10568 ft 380 kts 162°
2026-04-22 14:32 14.65902 -17.28894 9985 ft 377 kts 177°
2026-04-22 14:32 14.63300 -17.29086 9398 ft 373 kts 192°
2026-04-22 14:32 14.60761 -17.29699 8805 ft 371 kts 193°
2026-04-22 14:32 14.58231 -17.30175 8220 ft 370 kts 188°
2026-04-22 14:33 14.55652 -17.30404 7646 ft 369 kts 182°
2026-04-22 14:33 14.53100 -17.30127 7056 ft 368 kts 167°
2026-04-22 14:33 14.50731 -17.29149 6478 ft 367 kts 151°
2026-04-22 14:33 14.48741 -17.27574 5881 ft 366 kts 135°
2026-04-22 14:34 14.47218 -17.25472 5305 ft 364 kts 120°
2026-04-22 14:34 14.46228 -17.23085 4702 ft 362 kts 105°
2026-04-22 14:34 14.45905 -17.20540 4089 ft 360 kts 89°
2026-04-22 14:34 14.46276 -17.18018 3485 ft 357 kts 72°
2026-04-22 14:35 14.47133 -17.15635 2960 ft 351 kts 67°
2026-04-22 14:35 14.48053 -17.13350 2554 ft 338 kts 66°
2026-04-22 14:35 14.48913 -17.11199 2207 ft 312 kts 65°
2026-04-22 14:35 14.50008 -17.09387 2022 ft 279 kts 48°
2026-04-22 14:36 14.51229 -17.07982 1975 ft 249 kts 45°
2026-04-22 14:36 14.52310 -17.06780 1956 ft 205 kts 45°
2026-04-22 14:36 14.53430 -17.06080 1977 ft 182 kts
2026-04-22 14:36 14.54570 -17.06372 1983 ft 163 kts 322°
2026-04-22 14:37 14.55197 -17.07268 1975 ft 152 kts 317°
2026-04-22 14:37 14.56135 -17.07610 1974 ft 146 kts 10°
2026-04-22 14:37 14.57074 -17.07157 1836 ft 150 kts 15°
2026-04-22 14:37 14.58074 -17.07246 1669 ft 143 kts 351°
2026-04-22 14:38 14.59064 -17.07125 1536 ft 141 kts
2026-04-22 14:38 14.60054 -17.07190 1376 ft 144 kts 352°
2026-04-22 14:38 14.61047 -17.07221 1169 ft 147 kts 359°
2026-04-22 14:38 14.62050 -17.07234 965 ft 140 kts 359°
2026-04-22 14:39 14.63023 -17.07243 791 ft 140 kts 359°
2026-04-22 14:39 14.64021 -17.07251 581 ft 143 kts 358°
2026-04-22 14:39 14.65001 -17.07266 401 ft 139 kts 359°
2026-04-22 14:40 14.66528 -17.07276 299 ft 107 kts 359°
2026-04-22 14:40 14.67257 -17.07284 306 ft 50 kts 359°
2026-04-22 14:40 14.67466 -17.07286 302 ft 15 kts
2026-04-22 14:40 14.67574 -17.07283 298 ft 15 kts
2026-04-22 14:41 14.67686 -17.07253 295 ft 16 kts 33°
2026-04-22 14:41 14.67789 -17.07192 291 ft 17 kts 29°
2026-04-22 14:41 14.67901 -17.07132 286 ft 19 kts 26°
2026-04-22 14:41 14.68031 -17.07092 279 ft 13 kts 21°
2026-04-22 14:42 14.68062 -17.07032 277 ft 8 kts 83°
2026-04-22 14:42 14.68073 -17.06980 276 ft 7 kts 76°
2026-04-22 14:42 14.68080 -17.06928 274 ft 7 kts 88°
2026-04-22 14:42 14.68081 -17.06891 273 ft 0 kts 90°